Location: Murdochville
(48.9591°N, 65.4950°W)
Time: 22:52:28
(UTC-04:00)

Envisat - Pass Details

Date: 24 April 2026
Orbit: 761 x 762 km, 98.4° (Epoch: 15 May)

Event Time Altitude Azimuth Distance (km) Brightness Sun altitude
Rises 03:14:51 0° 13° (NNE) 3,235 7.3 -17.1°
Reaches altitude 10° 03:17:09 10° 13° (NNE) 2,305 6.4 -16.9°
Maximum altitude 03:22:15 85° 286° (WNW) 771 2.9 -16.3°
Enters shadow 03:25:36 22° 199° (SSW) 1,625 4.2 -15.9°
